Wormley Airport

Jump to: basic info | weather | runways | comments

Related pages: nearby airports | nearby navaids | notams | map

Basic information (top)

Codes: 85LL
Location: lon 41.683899, lat -88.262299, elev 680 ft / 207 m msl
Status: small_airport

Weather (top)

Current conditions for Lewis University Airport 9nm (16km) ESE (rec'd 2014/10/30 13:55Z):

KLOT 301355Z AUTO 00000KT 7SM CLR 03/03 A3015

Airport forecast for Dupage Airport 13nm (25km) N (rec'd 2014/10/30 12:24Z):

TAF KDPA 301120Z 3012/3112 00000KT P6SM BKN250 
     FM301300 22005KT P6SM SCT050 BKN250 
     FM301900 25008KT P6SM SCT040 BKN100 
     FM302300 27004KT P6SM SCT035 OVC060 
     FM310400 30010KT P6SM VCSH BKN012 OVC025 
     FM310900 33014G24KT P6SM SCT012 BKN035

Runways (top)

N/S: 2,300 x 100 ft (701 x 30 m) — grass — not lighted

Latest comments (top)

No comments yet for Wormley Airport

More... (top)

See also NOTAMs and nearby airports and navaids, or visit the Wormley Airport page at the main OurAirports website..